Petersburg, WV

5:15 PM EDT on August 22, 2017 (GMT -0400)
Petersburg

Weather History for KW99 - February, 2013

Change the Weather History Date:

Wednesday, February 20, 2013

  Actual Average (KEKN) Record (KEKN)
Temperature  
Mean Temperature 30 °F -  
Max Temperature 36 °F 44 °F 68 °F (1955)
Min Temperature 25 °F 21 °F -15 °F (1978)
Degree Days  
Heating Degree Days 34    
Moisture  
Dew Point 13 °F    
Average Humidity 48    
Maximum Humidity 55    
Minimum Humidity 36    
Precipitation  
Precipitation 0.01 in - - ()
Sea Level Pressure  
Sea Level Pressure 30.04 in    
Wind  
Wind Speed 18 mph (West)    
Max Wind Speed 31 mph    
Max Gust Speed 46 mph    
Visibility 10 miles    
Events Snow    
Averages and records for this station are not official NWS values.
T = Trace of Precipitation, MM = Missing Value Source: NWS Daily Summary

Daily Weather History Graph

Daily Weather History Graph

Search for Another Location

Airport or City:

Trip Planner

Search our weather history database for the weather conditions in past years. The results will help you decide how hot, cold, wet, or windy it might be!

Date:

Astronomy

Feb. 20, 2013 Rise Set
Actual Time 7:01 AM EST 5:59 PM EST
Civil Twilight 6:34 AM EST 6:26 PM EST
Nautical Twilight 6:03 AM EST 6:58 PM EST
Astronomical Twilight 5:32 AM EST 7:28 PM EST
Moon 1:21 PM EST (2/20) 3:18 AM EST (2/20)
Length of Visible Light 11h 52m
Length of Day
10h 58m
Waxing Gibbous, 76% of the Moon is Illuminated
Feb 20
Waxing Gibbous
Feb 25
Full
Mar 4
Last Quarter
Mar 11
New
Mar 19
First Quarter

Hourly Weather History & Observations

Time (EST) Temp. Windchill Dew Point Humidity Pressure Visibility Wind Dir Wind Speed Gust Speed Precip Events Conditions
12:15 AM 35.2 °F 26.2 °F 19.9 °F 54% 29.90 in 10.0 mi WSW 13.8 mph 24.2 mph N/A   Overcast
12:35 AM 35.1 °F 26.4 °F 19.0 °F 52% 29.90 in 10.0 mi West 12.7 mph 33.4 mph N/A   Overcast
12:55 AM 34.9 °F 22.0 °F 18.3 °F 51% 29.89 in 10.0 mi West 27.6 mph 39.1 mph N/A   Mostly Cloudy
1:15 AM 34.3 °F 22.0 °F 17.2 °F 50% 29.89 in 10.0 mi West 24.2 mph 41.4 mph N/A   Mostly Cloudy
1:35 AM 34.0 °F 22.4 °F 17.2 °F 50% 29.91 in 10.0 mi West 20.7 mph 41.4 mph N/A   Overcast
1:55 AM 33.8 °F 22.2 °F 16.0 °F 48% 29.91 in 10.0 mi West 20.7 mph 28.8 mph N/A   Overcast
2:15 AM 33.4 °F 21.1 °F 17.8 °F 53% 29.91 in 7.0 mi West 23.0 mph 34.5 mph N/A Snow Light Snow
2:35 AM 32.9 °F 19.6 °F 16.3 °F 51% 29.90 in 10.0 mi West 26.5 mph 41.4 mph N/A   Overcast
2:55 AM 32.4 °F 19.7 °F 15.8 °F 51% 29.90 in 10.0 mi WSW 23.0 mph 46.0 mph N/A   Scattered Clouds
3:15 AM 32.4 °F 20.3 °F 15.8 °F 51% 29.90 in 10.0 mi West 20.7 mph 33.4 mph N/A   Scattered Clouds
3:35 AM 32.0 °F 19.5 °F 15.3 °F 50% 29.91 in 10.0 mi West 21.9 mph 40.3 mph N/A   Mostly Cloudy
3:55 AM 31.8 °F 17.4 °F 14.5 °F 49% 29.91 in 10.0 mi West 29.9 mph 40.3 mph N/A   Mostly Cloudy
4:15 AM 31.8 °F 17.2 °F 14.0 °F 48% 29.91 in 10.0 mi West 31.1 mph 42.6 mph N/A   Scattered Clouds
4:35 AM 31.8 °F 19.9 °F 15.1 °F 50% 29.93 in 10.0 mi West 19.6 mph 39.1 mph N/A   Mostly Cloudy
4:55 AM 31.1 °F 17.2 °F 14.5 °F 50% 29.94 in 10.0 mi West 26.5 mph 39.1 mph N/A   Mostly Cloudy
5:15 AM 30.7 °F 18.1 °F 14.4 °F 51% 29.95 in 10.0 mi West 20.7 mph 39.1 mph N/A   Mostly Cloudy
5:35 AM 30.7 °F 15.7 °F 13.1 °F 48% 29.95 in 10.0 mi West 31.1 mph 35.7 mph N/A   Mostly Cloudy
6:15 AM 30.2 °F 17.8 °F 13.3 °F 49% 29.97 in 10.0 mi West 19.6 mph 31.1 mph N/A   Mostly Cloudy
6:35 AM 30.2 °F 16.2 °F 13.1 °F 49% 29.97 in 10.0 mi West 25.3 mph 40.3 mph N/A   Overcast
7:15 AM 29.3 °F 14.2 °F 12.6 °F 50% 29.98 in 10.0 mi West 28.8 mph 35.7 mph N/A   Mostly Cloudy
7:35 AM 29.3 °F 15.0 °F 12.6 °F 50% 30.00 in 10.0 mi West 25.3 mph 35.7 mph N/A   Overcast
7:55 AM 29.3 °F 15.3 °F 12.7 °F 50% 30.00 in 10.0 mi West 24.2 mph 38.0 mph N/A   Overcast
8:15 AM 29.3 °F 14.5 °F 12.4 °F 49% 30.00 in 10.0 mi West 27.6 mph 44.9 mph N/A   Mostly Cloudy
9:15 AM 29.3 °F 16.6 °F 11.3 °F 47% 30.02 in 10.0 mi West 19.6 mph 31.1 mph N/A   Mostly Cloudy
9:35 AM 29.8 °F 18.0 °F 11.3 °F 46% 30.03 in 10.0 mi WSW 17.3 mph 23.0 mph N/A   Mostly Cloudy
10:15 AM 30.2 °F 18.9 °F 11.1 °F 45% 30.03 in 10.0 mi WSW 16.1 mph 19.6 mph N/A   Overcast
10:35 AM 30.2 °F 18.5 °F 11.1 °F 45% 30.04 in 10.0 mi WSW 17.3 mph 25.3 mph N/A   Overcast
10:55 AM 30.2 °F 18.1 °F 10.9 °F 45% 30.03 in 10.0 mi West 18.4 mph 24.2 mph N/A   Scattered Clouds
11:15 AM 30.9 °F 18.1 °F 11.1 °F 44% 30.03 in 10.0 mi West 21.9 mph 32.2 mph N/A   Scattered Clouds
11:35 AM 30.9 °F 18.7 °F 10.8 °F 43% 30.03 in 10.0 mi West 19.6 mph 33.4 mph N/A   Clear
11:55 AM 32.5 °F 19.9 °F 10.9 °F 41% 30.03 in 10.0 mi West 23.0 mph 31.1 mph N/A   Clear
12:15 PM 33.4 °F 23.1 °F 11.1 °F 40% 30.02 in 10.0 mi SW 16.1 mph 26.5 mph N/A   Clear
12:35 PM 34.9 °F 26.2 °F 11.5 °F 38% 30.02 in 10.0 mi West 12.7 mph 28.8 mph N/A   Clear
12:55 PM 36.1 °F 26.2 °F 12.4 °F 38% 30.01 in 10.0 mi West 17.3 mph 27.6 mph N/A   Clear
1:15 PM 36.3 °F 25.8 °F 12.6 °F 38% 30.01 in 10.0 mi West 19.6 mph 25.3 mph N/A   Clear
1:35 PM 36.0 °F 27.1 °F 13.1 °F 39% 30.02 in 10.0 mi West 13.8 mph 29.9 mph N/A   Clear
1:55 PM 36.7 °F 26.0 °F 12.0 °F 36% 30.02 in 10.0 mi West 20.7 mph 31.1 mph N/A   Clear
2:15 PM 35.8 °F 27.3 °F 11.3 °F 36% 30.03 in 10.0 mi WSW 12.7 mph 20.7 mph N/A   Scattered Clouds
2:35 PM 35.4 °F 26.4 °F 12.2 °F 38% 30.03 in 10.0 mi West 13.8 mph 19.6 mph N/A   Overcast
2:55 PM 35.1 °F 26.4 °F 11.7 °F 38% 30.04 in 10.0 mi West 12.7 mph 19.6 mph N/A   Overcast
3:15 PM 34.7 °F 24.3 °F 11.7 °F 39% 30.06 in 10.0 mi WNW 17.3 mph 28.8 mph N/A   Mostly Cloudy
3:35 PM 34.2 °F 24.0 °F 11.7 °F 39% 30.06 in 10.0 mi West 16.1 mph 29.9 mph N/A   Scattered Clouds
3:55 PM 33.3 °F 23.7 °F 11.7 °F 41% 30.07 in 10.0 mi WNW 13.8 mph 23.0 mph N/A   Clear
4:15 PM 32.4 °F 23.0 °F 11.3 °F 42% 30.08 in 10.0 mi West 12.7 mph 20.7 mph N/A   Clear
4:35 PM 31.1 °F 23.1 °F 11.1 °F 43% 30.09 in 10.0 mi West 9.2 mph 19.6 mph N/A   Scattered Clouds
4:55 PM 31.1 °F 21.4 °F 12.0 °F 45% 30.10 in 10.0 mi WNW 12.7 mph 19.6 mph N/A   Scattered Clouds
5:15 PM 30.7 °F 23.3 °F 12.9 °F 48% 30.10 in 10.0 mi West 8.1 mph - N/A   Scattered Clouds
5:35 PM 30.9 °F 21.7 °F 13.8 °F 49% 30.11 in 10.0 mi West 11.5 mph - N/A   Scattered Clouds
5:55 PM 30.4 °F 22.2 °F 13.5 °F 50% 30.12 in 10.0 mi WNW 9.2 mph - N/A   Mostly Cloudy
6:15 PM 30.2 °F 21.3 °F 13.1 °F 49% 30.13 in 10.0 mi WNW 10.4 mph - N/A   Overcast
6:35 PM 30.0 °F 21.7 °F 13.3 °F 50% 30.14 in 10.0 mi NW 9.2 mph - N/A   Overcast
6:55 PM 30.0 °F 26.5 °F 13.5 °F 50% 30.14 in 10.0 mi NW 3.5 mph - N/A   Overcast
7:15 PM 29.5 °F 21.8 °F 13.1 °F 51% 30.15 in 10.0 mi NNW 8.1 mph - N/A   Overcast
7:35 PM 28.9 °F 17.3 °F 13.1 °F 52% 30.15 in 10.0 mi West 16.1 mph 19.6 mph N/A   Overcast
7:55 PM 28.6 °F 17.7 °F 13.6 °F 54% 30.15 in 10.0 mi WNW 13.8 mph - N/A   Overcast
8:15 PM 28.2 °F 20.2 °F 13.1 °F 53% 30.16 in 10.0 mi West 8.1 mph 16.1 mph N/A   Overcast
8:35 PM 27.7 °F 18.8 °F 11.7 °F 51% 30.17 in 10.0 mi West 9.2 mph - N/A   Overcast
8:55 PM 27.0 °F 15.6 °F 11.3 °F 52% 30.18 in 10.0 mi WNW 13.8 mph 21.9 mph N/A   Overcast
9:15 PM 26.4 °F 16.6 °F 11.3 °F 53% 30.18 in 10.0 mi NW 10.4 mph 20.7 mph N/A   Overcast
9:35 PM 26.2 °F 18.6 °F 11.3 °F 53% 30.18 in 10.0 mi WNW 6.9 mph - N/A   Overcast
9:55 PM 26.1 °F 16.2 °F 11.7 °F 55% 30.18 in 10.0 mi WNW 10.4 mph 16.1 mph N/A Snow Light Snow
10:15 PM 26.1 °F 14.5 °F 11.1 °F 53% 30.18 in 10.0 mi WNW 13.8 mph 21.9 mph N/A   Overcast
10:35 PM 25.7 °F 14.6 °F 10.8 °F 53% 30.18 in 10.0 mi WNW 12.7 mph 18.4 mph N/A   Overcast
10:55 PM 25.5 °F 15.5 °F 10.9 °F 54% 30.17 in 10.0 mi WNW 10.4 mph 19.6 mph N/A   Overcast
11:15 PM 26.1 °F 17.6 °F 10.9 °F 53% 30.17 in 10.0 mi NW 8.1 mph - N/A   Overcast
11:55 PM 26.1 °F 16.8 °F 11.5 °F 54% 30.16 in 10.0 mi NW 9.2 mph - N/A   Overcast